Strona główna
METAR-TAF:

METAR-TAF

Lotnisko :

Nashua, New Hampshire, Stany Zjednoczone

Szerokość geograficzna: 42-47N, Długość geograficzna: 071-31W, wysokość: 61 m

Aktualna obserwacja pogody

Raport powstał 52 minut temu, godzina 05:56 UTC
Wiatr 4 kt od południowy zachód
Temperatura 2°C
Wilgotność 80%
Ciśnienie 1009 hPa
Widzialność: 16.1 km
bezchmurnie

METAR: KASH 170556Z AUTO 23004KT 10SM CLR 02/M01 A2979 RMK AO2 SLP100 T00171006 10017 21028 51021

czas: 01:48 (06:48 UTC)


TAF: brakujący

Obserwacja i prognoza pogody dla ponad 4000 lotnisk (raport METAR i TAF).

Dostępne stacje oznaczono żółtymi i czerwonymi punktami na mapie.

Najedź kursorem aby zobaczyć nazwę stacji.

Kliknij aby zobaczyć obserwacje i prognozy pogody.

Aby zmienić mapę: kliknij na zielony przycisk z czarnym krzyżykiem, aby powiększyć; na zielony przycisk z myślnikiem, aby pomniejszyć; na zielone strzałki, aby przejść do map sąsiednich.


METAR-TAF: